Time,TemperatureF,DewpointF,PressureIn,WindDirection,WindDirectionDegrees,WindSpeedMPH,WindSpeedGustMPH,Humidity,HourlyPrecipIn,Conditions,Clouds,dailyrainin,SolarRadiationWatts/m^2,SoftwareType,DateUTC
2013-06-04 00:12:00,67.0,18.0,-100.00,WNW,292,4.0,20.0,15,-99.99,,,0.00,0.000000,,2013-06-04 06:12:00,
2013-06-04 00:22:00,67.0,18.0,-100.00,WNW,292,4.0,20.0,15,-99.99,,,0.00,0.000000,,2013-06-04 06:22:00,
2013-06-04 00:32:00,67.0,18.0,-100.00,WNW,292,4.0,20.0,15,-99.99,,,0.00,0.000000,,2013-06-04 06:32:00,
2013-06-04 00:42:00,67.0,18.0,-100.00,WNW,292,4.0,20.0,15,-99.99,,,0.00,0.000000,,2013-06-04 06:42:00,
2013-06-04 00:51:00,65.0,15.0,-100.00,NW,314,4.0,11.0,14,0.00,,,0.00,0.000000,,2013-06-04 06:51:00,
2013-06-04 01:12:00,65.0,15.0,-100.00,NW,314,4.0,11.0,14,0.00,,,0.00,0.000000,,2013-06-04 07:12:00,
2013-06-04 01:22:00,65.0,15.0,-100.00,NW,314,4.0,11.0,14,0.00,,,0.00,0.000000,,2013-06-04 07:22:00,
2013-06-04 01:32:00,65.0,15.0,-100.00,NW,314,4.0,11.0,14,0.00,,,0.00,0.000000,,2013-06-04 07:32:00,
2013-06-04 01:42:00,65.0,15.0,-100.00,NW,314,4.0,11.0,14,0.00,,,0.00,0.000000,,2013-06-04 07:42:00,
2013-06-04 02:12:00,62.0,14.0,-100.00,NW,323,5.0,9.0,15,0.00,,,0.00,0.000000,,2013-06-04 08:12:00,
2013-06-04 02:22:00,62.0,14.0,-100.00,NW,323,5.0,9.0,15,0.00,,,0.00,0.000000,,2013-06-04 08:22:00,
2013-06-04 02:32:00,62.0,14.0,-100.00,NW,323,5.0,9.0,15,0.00,,,0.00,0.000000,,2013-06-04 08:32:00,
2013-06-04 02:51:00,53.0,17.0,-100.00,West,280,6.0,10.0,24,-99.99,,,0.00,0.000000,,2013-06-04 08:51:00,
2013-06-04 03:12:00,53.0,17.0,-100.00,West,280,6.0,10.0,24,-99.99,,,0.00,0.000000,,2013-06-04 09:12:00,
2013-06-04 03:22:00,53.0,17.0,-100.00,West,280,6.0,10.0,24,-99.99,,,0.00,0.000000,,2013-06-04 09:22:00,
2013-06-04 03:32:00,53.0,17.0,-100.00,West,280,6.0,10.0,24,-99.99,,,0.00,0.000000,,2013-06-04 09:32:00,
2013-06-04 03:42:00,53.0,17.0,-100.00,West,280,6.0,10.0,24,-99.99,,,0.00,0.000000,,2013-06-04 09:42:00,
2013-06-04 03:51:00,50.0,21.0,-100.00,West,262,5.0,9.0,32,0.00,,,0.00,0.000000,,2013-06-04 09:51:00,
2013-06-04 04:12:00,50.0,21.0,-100.00,West,262,5.0,9.0,32,0.00,,,0.00,0.000000,,2013-06-04 10:12:00,
2013-06-04 04:22:00,50.0,21.0,-100.00,West,262,5.0,9.0,32,0.00,,,0.00,0.000000,,2013-06-04 10:22:00,
2013-06-04 04:32:00,50.0,21.0,-100.00,West,262,5.0,9.0,32,0.00,,,0.00,0.000000,,2013-06-04 10:32:00,
2013-06-04 04:42:00,50.0,21.0,-100.00,West,262,5.0,9.0,32,0.00,,,0.00,0.000000,,2013-06-04 10:42:00,
2013-06-04 04:51:00,49.0,22.0,-100.00,SW,232,3.0,6.0,34,0.00,,,0.00,0.000000,,2013-06-04 10:51:00,
2013-06-04 05:12:00,49.0,22.0,-100.00,SW,232,3.0,6.0,34,0.00,,,0.00,0.000000,,2013-06-04 11:12:00,
2013-06-04 05:22:00,49.0,22.0,-100.00,SW,232,3.0,6.0,34,0.00,,,0.00,0.000000,,2013-06-04 11:22:00,
2013-06-04 05:32:00,49.0,22.0,-100.00,SW,232,3.0,6.0,34,0.00,,,0.00,0.000000,,2013-06-04 11:32:00,
2013-06-04 05:42:00,49.0,22.0,-100.00,SW,232,3.0,6.0,34,0.00,,,0.00,0.000000,,2013-06-04 11:42:00,
2013-06-04 05:51:00,50.0,23.0,-100.00,NW,325,1.0,4.0,35,0.00,,,0.00,1.000000,,2013-06-04 11:51:00,
2013-06-04 06:12:00,50.0,23.0,-100.00,NW,325,1.0,4.0,35,0.00,,,0.00,1.000000,,2013-06-04 12:12:00,
2013-06-04 06:22:00,50.0,23.0,-100.00,NW,325,1.0,4.0,35,0.00,,,0.00,1.000000,,2013-06-04 12:22:00,
2013-06-04 06:32:00,50.0,23.0,-100.00,NW,325,1.0,4.0,35,0.00,,,0.00,1.000000,,2013-06-04 12:32:00,
2013-06-04 06:42:00,50.0,23.0,-100.00,NW,325,1.0,4.0,35,0.00,,,0.00,1.000000,,2013-06-04 12:42:00,
2013-06-04 06:51:00,54.0,26.0,-100.00,NE,46,0.0,5.0,34,0.00,,,-99.99,65.000000,,2013-06-04 12:51:00,
2013-06-04 07:12:00,54.0,26.0,-100.00,NE,46,0.0,5.0,34,0.00,,,-99.99,65.000000,,2013-06-04 13:12:00,
2013-06-04 07:22:00,54.0,26.0,-100.00,NE,46,0.0,5.0,34,0.00,,,-99.99,65.000000,,2013-06-04 13:22:00,
2013-06-04 07:32:00,54.0,26.0,-100.00,NE,46,0.0,5.0,34,0.00,,,-99.99,65.000000,,2013-06-04 13:32:00,
2013-06-04 07:42:00,54.0,26.0,-100.00,NE,46,0.0,5.0,34,0.00,,,-99.99,65.000000,,2013-06-04 13:42:00,
2013-06-04 07:51:00,56.0,27.0,-100.00,East,91,2.0,6.0,33,0.00,,,0.00,180.000000,,2013-06-04 13:51:00,
2013-06-04 08:12:00,56.0,27.0,-100.00,East,91,2.0,6.0,33,0.00,,,0.00,180.000000,,2013-06-04 14:12:00,
2013-06-04 08:22:00,56.0,27.0,-100.00,East,91,2.0,6.0,33,0.00,,,0.00,180.000000,,2013-06-04 14:22:00,
2013-06-04 08:32:00,56.0,27.0,-100.00,East,91,2.0,6.0,33,0.00,,,0.00,180.000000,,2013-06-04 14:32:00,
2013-06-04 08:42:00,56.0,27.0,-100.00,East,91,2.0,6.0,33,0.00,,,0.00,180.000000,,2013-06-04 14:42:00,
2013-06-04 08:51:00,59.0,28.0,-100.00,NNE,29,3.0,7.0,31,0.00,,,0.00,510.000000,,2013-06-04 14:51:00,
2013-06-04 09:12:00,59.0,28.0,-100.00,NNE,29,3.0,7.0,31,0.00,,,0.00,510.000000,,2013-06-04 15:12:00,
2013-06-04 09:22:00,59.0,28.0,-100.00,NNE,29,3.0,7.0,31,0.00,,,0.00,510.000000,,2013-06-04 15:22:00,
2013-06-04 09:33:00,59.0,28.0,-100.00,NNE,29,3.0,7.0,31,0.00,,,0.00,510.000000,,2013-06-04 15:33:00,
2013-06-04 09:42:00,59.0,28.0,-100.00,NNE,29,3.0,7.0,31,0.00,,,0.00,510.000000,,2013-06-04 15:42:00,
2013-06-04 09:51:00,65.0,30.0,-100.00,ENE,76,3.0,7.0,27,0.00,,,0.00,773.000000,,2013-06-04 15:51:00,
2013-06-04 10:12:00,65.0,30.0,-100.00,ENE,76,3.0,7.0,27,0.00,,,0.00,773.000000,,2013-06-04 16:12:00,
2013-06-04 10:22:00,65.0,30.0,-100.00,ENE,76,3.0,7.0,27,0.00,,,0.00,773.000000,,2013-06-04 16:22:00,
2013-06-04 10:33:00,65.0,30.0,-100.00,ENE,76,3.0,7.0,27,0.00,,,0.00,773.000000,,2013-06-04 16:33:00,
2013-06-04 10:42:00,65.0,30.0,-100.00,ENE,76,3.0,7.0,27,0.00,,,0.00,773.000000,,2013-06-04 16:42:00,
2013-06-04 10:51:00,68.0,30.0,-100.00,ENE,66,4.0,7.0,24,0.00,,,0.00,783.000000,,2013-06-04 16:51:00,
2013-06-04 11:12:00,68.0,30.0,-100.00,ENE,66,4.0,7.0,24,0.00,,,0.00,783.000000,,2013-06-04 17:12:00,
2013-06-04 11:23:00,68.0,30.0,-100.00,ENE,66,4.0,7.0,24,0.00,,,0.00,783.000000,,2013-06-04 17:23:00,
2013-06-04 11:32:00,68.0,30.0,-100.00,ENE,66,4.0,7.0,24,0.00,,,0.00,783.000000,,2013-06-04 17:32:00,
2013-06-04 11:42:00,68.0,30.0,-100.00,ENE,66,4.0,7.0,24,0.00,,,0.00,783.000000,,2013-06-04 17:42:00,
2013-06-04 11:51:00,74.0,29.0,-100.00,NNW,333,5.0,12.0,19,0.00,,,0.00,1124.000000,,2013-06-04 17:51:00,
2013-06-04 12:12:00,74.0,29.0,-100.00,NNW,333,5.0,12.0,19,0.00,,,0.00,1124.000000,,2013-06-04 18:12:00,
2013-06-04 12:22:00,74.0,29.0,-100.00,NNW,333,5.0,12.0,19,0.00,,,0.00,1124.000000,,2013-06-04 18:22:00,
2013-06-04 12:32:00,74.0,29.0,-100.00,NNW,333,5.0,12.0,19,0.00,,,0.00,1124.000000,,2013-06-04 18:32:00,
2013-06-04 12:42:00,74.0,29.0,-100.00,NNW,333,5.0,12.0,19,0.00,,,0.00,1124.000000,,2013-06-04 18:42:00,
2013-06-04 12:51:00,77.0,27.0,-100.00,WNW,287,9.0,18.0,16,0.00,,,0.00,1068.000000,,2013-06-04 18:51:00,
2013-06-04 13:12:00,77.0,27.0,-100.00,WNW,287,9.0,18.0,16,0.00,,,0.00,1068.000000,,2013-06-04 19:12:00,
2013-06-04 13:22:00,77.0,27.0,-100.00,WNW,287,9.0,18.0,16,0.00,,,0.00,1068.000000,,2013-06-04 19:22:00,
2013-06-04 13:32:00,77.0,27.0,-100.00,WNW,287,9.0,18.0,16,0.00,,,0.00,1068.000000,,2013-06-04 19:32:00,
2013-06-04 13:42:00,77.0,27.0,-100.00,WNW,287,9.0,18.0,16,0.00,,,0.00,1068.000000,,2013-06-04 19:42:00,
2013-06-04 13:51:00,81.0,29.0,-100.00,West,276,14.0,25.0,15,0.00,,,0.00,1019.000000,,2013-06-04 19:51:00,
2013-06-04 14:12:00,81.0,29.0,-100.00,West,276,14.0,25.0,15,0.00,,,0.00,1019.000000,,2013-06-04 20:12:00,
2013-06-04 14:22:00,81.0,29.0,-100.00,West,276,14.0,25.0,15,0.00,,,0.00,1019.000000,,2013-06-04 20:22:00,
2013-06-04 14:32:00,81.0,29.0,-100.00,West,276,14.0,25.0,15,0.00,,,0.00,1019.000000,,2013-06-04 20:32:00,
2013-06-04 14:42:00,81.0,29.0,-100.00,West,276,14.0,25.0,15,0.00,,,0.00,1019.000000,,2013-06-04 20:42:00,
2013-06-04 14:51:00,83.0,29.0,-100.00,West,265,14.0,29.0,14,0.00,,,0.00,1182.000000,,2013-06-04 20:51:00,
2013-06-04 15:12:00,83.0,29.0,-100.00,West,265,14.0,29.0,14,0.00,,,0.00,1182.000000,,2013-06-04 21:12:00,
2013-06-04 15:22:00,83.0,29.0,-100.00,West,265,14.0,29.0,14,0.00,,,0.00,1182.000000,,2013-06-04 21:22:00,
2013-06-04 15:33:00,83.0,29.0,-100.00,West,265,14.0,29.0,14,0.00,,,0.00,1182.000000,,2013-06-04 21:33:00,
2013-06-04 15:42:00,83.0,29.0,-100.00,West,265,14.0,29.0,14,0.00,,,0.00,1182.000000,,2013-06-04 21:42:00,
2013-06-04 15:51:00,84.0,26.0,-100.00,West,259,17.0,31.0,12,0.00,,,0.00,1083.000000,,2013-06-04 21:51:00,
2013-06-04 16:12:00,84.0,26.0,-100.00,West,259,17.0,31.0,12,0.00,,,0.00,1083.000000,,2013-06-04 22:12:00,
2013-06-04 16:22:00,84.0,26.0,-100.00,West,259,17.0,31.0,12,0.00,,,0.00,1083.000000,,2013-06-04 22:22:00,
2013-06-04 16:32:00,84.0,26.0,-100.00,West,259,17.0,31.0,12,0.00,,,0.00,1083.000000,,2013-06-04 22:32:00,
2013-06-04 16:42:00,84.0,26.0,-100.00,West,259,17.0,31.0,12,0.00,,,0.00,1083.000000,,2013-06-04 22:42:00,
2013-06-04 16:51:00,84.0,26.0,-100.00,West,263,12.0,31.0,12,0.00,,,0.00,878.000000,,2013-06-04 22:51:00,
2013-06-04 17:12:00,84.0,26.0,-100.00,West,263,12.0,31.0,12,0.00,,,0.00,878.000000,,2013-06-04 23:12:00,
2013-06-04 17:22:00,84.0,26.0,-100.00,West,263,12.0,31.0,12,0.00,,,0.00,878.000000,,2013-06-04 23:22:00,
2013-06-04 17:32:00,84.0,26.0,-100.00,West,263,12.0,31.0,12,0.00,,,0.00,878.000000,,2013-06-04 23:32:00,
2013-06-04 17:42:00,84.0,26.0,-100.00,West,263,12.0,31.0,12,0.00,,,0.00,878.000000,,2013-06-04 23:42:00,
2013-06-04 17:51:00,83.0,27.0,-100.00,West,266,11.0,24.0,13,0.00,,,0.00,487.000000,,2013-06-04 23:51:00,
2013-06-04 18:12:00,83.0,27.0,-100.00,West,266,11.0,24.0,13,0.00,,,0.00,487.000000,,2013-06-05 00:12:00,
2013-06-04 18:22:00,83.0,27.0,-100.00,West,266,11.0,24.0,13,0.00,,,0.00,487.000000,,2013-06-05 00:22:00,
2013-06-04 18:32:00,83.0,27.0,-100.00,West,266,11.0,24.0,13,0.00,,,0.00,487.000000,,2013-06-05 00:32:00,
2013-06-04 18:42:00,83.0,27.0,-100.00,West,266,11.0,24.0,13,0.00,,,0.00,487.000000,,2013-06-05 00:42:00,
2013-06-04 18:51:00,79.0,27.0,-100.00,WNW,284,9.0,18.0,15,0.00,,,0.00,287.000000,,2013-06-05 00:51:00,
2013-06-04 19:12:00,79.0,27.0,-100.00,WNW,284,9.0,18.0,15,0.00,,,0.00,287.000000,,2013-06-05 01:12:00,
2013-06-04 19:22:00,79.0,27.0,-100.00,WNW,284,9.0,18.0,15,0.00,,,0.00,287.000000,,2013-06-05 01:22:00,
2013-06-04 19:32:00,79.0,27.0,-100.00,WNW,284,9.0,18.0,15,0.00,,,0.00,287.000000,,2013-06-05 01:32:00,
2013-06-04 19:42:00,79.0,27.0,-100.00,WNW,284,9.0,18.0,15,0.00,,,0.00,287.000000,,2013-06-05 01:42:00,
2013-06-04 19:51:00,75.0,29.0,-100.00,NW,309,7.0,42.0,18,0.00,,,0.00,42.000000,,2013-06-05 01:51:00,
2013-06-04 20:12:00,75.0,29.0,-100.00,NW,309,7.0,42.0,18,0.00,,,0.00,42.000000,,2013-06-05 02:12:00,
2013-06-04 20:22:00,75.0,29.0,-100.00,NW,309,7.0,42.0,18,0.00,,,0.00,42.000000,,2013-06-05 02:22:00,
2013-06-04 20:32:00,75.0,29.0,-100.00,NW,309,7.0,42.0,18,0.00,,,0.00,42.000000,,2013-06-05 02:32:00,
2013-06-04 20:42:00,75.0,29.0,-100.00,NW,309,7.0,42.0,18,0.00,,,0.00,42.000000,,2013-06-05 02:42:00,
2013-06-04 20:51:00,73.0,30.0,-100.00,ESE,112,0.0,12.0,20,0.00,,,0.00,18.000000,,2013-06-05 02:51:00,
2013-06-04 21:12:00,73.0,30.0,-100.00,ESE,112,0.0,12.0,20,0.00,,,0.00,18.000000,,2013-06-05 03:12:00,
2013-06-04 21:22:00,73.0,30.0,-100.00,ESE,112,0.0,12.0,20,0.00,,,0.00,18.000000,,2013-06-05 03:22:00,
2013-06-04 21:33:00,73.0,30.0,-100.00,ESE,112,0.0,12.0,20,0.00,,,0.00,18.000000,,2013-06-05 03:33:00,
2013-06-04 21:43:00,73.0,30.0,-100.00,ESE,112,0.0,12.0,20,0.00,,,0.00,18.000000,,2013-06-05 03:43:00,
2013-06-04 21:51:00,71.0,30.0,-100.00,ESE,121,3.0,7.0,22,0.00,,,0.00,0.000000,,2013-06-05 03:51:00,
2013-06-04 22:13:00,71.0,30.0,-100.00,ESE,121,3.0,7.0,22,0.00,,,0.00,0.000000,,2013-06-05 04:13:00,
2013-06-04 22:22:00,71.0,30.0,-100.00,ESE,121,3.0,7.0,22,0.00,,,0.00,0.000000,,2013-06-05 04:22:00,
2013-06-04 22:33:00,71.0,30.0,-100.00,ESE,121,3.0,7.0,22,0.00,,,0.00,0.000000,,2013-06-05 04:33:00,
2013-06-04 22:42:00,71.0,30.0,-100.00,ESE,121,3.0,7.0,22,0.00,,,0.00,0.000000,,2013-06-05 04:42:00,
2013-06-04 22:51:00,69.0,29.0,-100.00,NW,325,8.0,14.0,22,0.00,,,0.00,0.000000,,2013-06-05 04:51:00,
2013-06-04 23:12:00,69.0,29.0,-100.00,NW,325,8.0,14.0,22,0.00,,,0.00,0.000000,,2013-06-05 05:12:00,
2013-06-04 23:22:00,69.0,29.0,-100.00,NW,325,8.0,14.0,22,0.00,,,0.00,0.000000,,2013-06-05 05:22:00,
2013-06-04 23:32:00,69.0,29.0,-100.00,NW,325,8.0,14.0,22,0.00,,,0.00,0.000000,,2013-06-05 05:32:00,
2013-06-04 23:42:00,69.0,29.0,-100.00,NW,325,8.0,14.0,22,0.00,,,0.00,0.000000,,2013-06-05 05:42:00,
2013-06-04 23:51:00,67.0,27.0,-100.00,NW,307,6.0,14.0,22,0.00,,,0.00,0.000000,,2013-06-05 05:51:00,